Regional Weather Roundup
Issued by NWS

Home | Current Version | Previous Version | Graphics & Text | Print | Product List | Glossary On
Versions: 1 2 3 4 5 6 7 8 9 10 11 12 13 14 15 16 17 18 19 20 21 22 23 24 25 26 27 28
000
ASUS45 KSLC 270010
RWRUT

UTAH REGIONAL WEATHER ROUNDUP
NATIONAL WEATHER SERVICE SALT LAKE CITY UT
600 PM MDT SUN MAR 26 2017

UTZ001>011-023>025-270100-

NORTHERN UTAH

CITY           SKY/WX    TMP DP  RH WIND       PRES   REMARKS
BRIGHAM CITY     N/A     51  27  39 CALM      29.98F
HILL AFB       CLOUDY    48  25  40 CALM      29.97F
LOGAN          CLOUDY    52  29  41 W3        29.97F
OGDEN          CLOUDY    50  26  39 CALM      29.96F
SALT LAKE CITY CLOUDY    53  30  41 S7        29.96S
WENDOVER       CLOUDY    55  33  43 SE20      29.93F
HEBER CITY     CLOUDY    50  19  29 SW13      29.96S

$$

UTZ011>015-024>027-270100-

CENTRAL/NORTHEAST UTAH

CITY           SKY/WX    TMP DP  RH WIND       PRES   REMARKS
PROVO AIRPORT  CLOUDY    51  26  37 CALM      29.99F
MOAB/CANYONLAN PTSUNNY   59  19  21 NW6       29.92F
DELTA          PTSUNNY   52  32  46 S8        29.98F
PRICE          CLOUDY    53  19  26 S7        29.96S
RICHFIELD      SUNNY     52  30  43 NE8       30.00F
ROOSEVELT      CLOUDY    54  28  37 SE3       29.97R
VERNAL         CLOUDY    52  28  39 S6        29.94F

$$

UTZ013>016-019>022-027-270100-

SOUTHERN UTAH

CITY           SKY/WX    TMP DP  RH WIND       PRES   REMARKS
BRYCE CANYON   CLOUDY    47  17  30 NW5       30.01F
CEDAR CITY     PTSUNNY   53  27  36 CALM      29.98F
MILFORD        PTSUNNY   54  27  35 S9        29.97F
ST GEORGE      CLOUDY    67  28  23 W6        29.93F
HANKSVILLE     MOSUNNY   61  19  20 SE5       29.95S
KANAB          SUNNY     61  25  25 S10       30.01F
BLANDING       MOSUNNY   56  25  30 SW9       30.02F

$$

REGIONAL REPORTS     COLORADO/ARIZONA

CITY           SKY/WX    TMP DP  RH WIND       PRES   REMARKS
CRAIG, CO      CLOUDY    51  19  28 W10       29.96S
GRAND JUNCTION CLOUDY    60  26  27 NW10      29.92S
RIFLE, CO      SUNNY     56  22  26 W12       29.93F
MONTROSE, CO   CLOUDY    54  32  43 SE10      29.97F
CORTEZ, CO     CLOUDY    57  30  35 W10       29.97S
COLORADO CITY    N/A     61  30  31 NW6       30.01F
PAGE, AZ       PTSUNNY   64  39  39 NE7       29.94S
GRAND CANYON   PTSUNNY   52  21  29 W12       30.04F
KINGMAN, AZ    SUNNY     69  14  12 SW6       29.96S
FLAGSTAFF, AZ  SUNNY     53  23  31 SW15G24   30.04R

$$

REGIONAL REPORTS    NEVADA/IDAHO/WYOMING

CITY           SKY/WX    TMP DP  RH WIND       PRES   REMARKS
LAS VEGAS, NV  PTSUNNY   75  29  18 NE12      29.87F
ELY, NY        CLOUDY    50  28  42 S13G20    29.98S
ELKO, NV       CLOUDY    51  28  41 W15       29.95S
POCATELLO, ID  CLOUDY    50  30  46 S16       29.93S
BURLEY, ID     CLOUDY    47  35  63 W12       29.92R
FORT BRIDGER,    N/A     44  23  43 W10       30.00S
EVANSTON, WY   CLOUDY    42  22  44 W17       29.98S
ROCK SPRINGS,  CLOUDY    46  22  38 W8        29.95F
KEMMERER, WY     N/A     37  25  60 NW9       29.98S WCI  31

$$




USA.gov is the U.S. government's official web portal to all federal, state and local government web resources and services.